Date Time,Air Temp,Sky Temp,Clarity,Light Level,Rain Sensor,Readings
2011-01-16 00:01:25,17.0,6.2,10.8,0.0,3.6,111
2011-01-16 00:06:25,17.0,5.2,11.8,0.0,5.6,112
2011-01-16 00:11:25,16.9,6.7,10.2,0.0,17.1,112
2011-01-16 00:16:25,16.9,9.4,7.5,0.0,16.5,111
2011-01-16 00:21:25,16.8,8.0,8.8,0.0,4.8,112
2011-01-16 00:26:25,16.8,5.6,11.2,0.0,4.2,111
2011-01-16 00:31:25,16.8,5.8,11.0,0.0,4.3,112
2011-01-16 00:36:25,16.8,5.9,10.9,0.0,4.2,111
2011-01-16 00:41:25,16.9,6.0,10.9,0.0,4.0,112
2011-01-16 00:46:25,16.9,5.4,11.5,0.0,6.4,111
2011-01-16 00:51:25,16.9,5.2,11.7,0.0,5.3,112
2011-01-16 00:56:25,16.9,6.1,10.8,0.0,4.5,111
2011-01-16 01:01:39,16.9,5.8,11.1,0.0,4.4,111
2011-01-16 01:06:39,16.9,5.4,11.6,0.0,4.4,112
2011-01-16 01:11:39,17.0,5.5,11.4,0.0,4.4,112
2011-01-16 01:16:39,17.0,5.3,11.7,0.0,4.4,112
2011-01-16 01:21:39,17.0,4.7,12.4,0.0,4.3,112
2011-01-16 01:26:39,17.1,5.0,12.1,0.0,4.3,112
2011-01-16 01:31:39,17.2,4.6,12.6,0.0,4.2,111
2011-01-16 01:36:39,17.3,5.4,11.9,0.0,4.2,112
2011-01-16 01:41:39,17.3,5.3,12.0,0.0,4.3,112
2011-01-16 01:46:39,17.4,5.5,11.9,0.0,4.3,111
2011-01-16 01:51:39,17.5,5.3,12.1,0.0,4.3,112
2011-01-16 01:56:39,17.6,5.4,12.2,0.0,4.3,112
2011-01-16 02:01:39,17.6,5.4,12.2,0.0,5.6,111
2011-01-16 02:06:39,17.4,5.1,12.4,0.0,7.0,112
2011-01-16 02:11:39,17.3,5.4,11.9,0.0,4.8,111
2011-01-16 02:16:39,17.4,5.4,12.0,0.0,4.7,112
2011-01-16 02:21:39,17.4,5.6,11.8,0.0,4.7,112
2011-01-16 02:26:39,17.5,5.4,12.1,0.0,4.8,111
2011-01-16 02:31:39,17.5,5.1,12.4,0.0,4.7,112
2011-01-16 02:36:39,17.6,4.7,12.9,0.0,4.7,112
2011-01-16 02:41:39,17.6,5.4,12.2,0.0,4.7,111
2011-01-16 02:46:39,17.6,5.7,12.0,0.0,4.6,112
2011-01-16 02:51:39,17.6,5.7,11.9,0.0,4.7,112
2011-01-16 02:56:39,17.6,5.7,11.9,0.0,4.7,111
2011-01-16 03:01:39,17.6,6.1,11.6,0.0,4.9,111
2011-01-16 03:06:39,17.6,5.9,11.7,0.0,4.7,112
2011-01-16 03:11:39,17.6,6.1,11.6,0.0,4.8,111
2011-01-16 03:16:39,17.6,6.2,11.4,0.0,4.8,112
2011-01-16 03:25:04,17.3,6.0,11.3,0.0,5.8,108
2011-01-16 03:30:04,17.6,6.5,11.0,0.0,4.9,111
2011-01-16 03:35:04,17.5,6.3,11.2,0.0,4.8,112
2011-01-16 03:40:04,17.5,6.2,11.3,0.0,4.7,112
2011-01-16 03:45:04,17.5,6.3,11.2,0.0,4.7,111
2011-01-16 03:50:04,17.6,6.1,11.4,0.0,4.7,111
2011-01-16 03:55:04,17.6,6.2,11.3,0.0,4.7,111
2011-01-16 04:00:04,17.5,6.4,11.2,0.0,4.7,112
2011-01-16 04:05:04,17.5,6.4,11.1,0.0,4.6,111
2011-01-16 04:10:04,17.5,6.3,11.2,0.0,4.7,111
2011-01-16 04:15:04,17.5,6.4,11.2,0.0,4.6,111
2011-01-16 04:20:04,17.2,6.4,10.8,0.0,4.6,112
2011-01-16 04:25:04,17.5,6.5,11.0,0.0,4.6,111
2011-01-16 04:30:04,17.5,6.1,11.4,0.0,4.6,112
2011-01-16 04:35:04,17.5,6.5,11.0,0.0,4.6,111
2011-01-16 04:40:04,17.5,6.2,11.4,0.0,4.6,112
2011-01-16 04:45:04,17.6,6.3,11.2,0.0,4.6,111
2011-01-16 04:50:04,17.6,5.9,11.6,0.0,4.6,111
2011-01-16 04:55:04,17.6,5.6,12.0,0.0,4.7,112
2011-01-16 05:00:04,17.6,5.9,11.7,0.0,4.7,111
2011-01-16 05:05:04,17.6,5.9,11.7,0.0,4.6,112
2011-01-16 05:10:04,17.6,5.9,11.7,0.0,4.6,111
2011-01-16 05:15:04,17.7,5.6,12.1,0.0,4.6,112
2011-01-16 05:20:04,17.7,4.5,13.1,0.0,4.6,112
2011-01-16 05:25:04,17.7,4.6,13.1,0.0,4.5,111
2011-01-16 05:30:04,17.7,4.6,13.1,0.0,4.6,112
2011-01-16 05:35:04,17.7,4.6,13.1,0.0,4.6,111
2011-01-16 05:40:04,17.6,3.7,13.9,0.0,4.6,112
2011-01-16 05:45:04,17.6,3.0,14.6,0.0,4.5,111
2011-01-16 05:50:04,17.6,3.5,14.1,0.0,4.6,111
2011-01-16 05:55:04,17.6,3.8,13.9,0.0,4.6,112
2011-01-16 06:00:04,17.6,4.1,13.5,0.0,4.5,111
2011-01-16 06:05:04,17.6,4.7,12.9,0.0,4.6,112
2011-01-16 06:10:04,17.6,5.0,12.6,0.0,4.6,112
2011-01-16 06:15:04,17.6,5.2,12.4,0.0,4.6,111
2011-01-16 06:20:04,17.6,4.4,13.1,0.0,4.5,112
2011-01-16 06:25:04,17.6,4.7,12.8,0.0,4.5,111
2011-01-16 06:30:04,17.6,5.4,12.2,0.0,4.6,112
2011-01-16 06:35:04,17.6,4.8,12.8,0.0,4.6,112
2011-01-16 06:40:04,17.6,4.6,12.9,0.0,4.6,111
2011-01-16 06:45:04,17.5,3.4,14.2,0.0,4.6,111
2011-01-16 06:50:04,17.5,3.3,14.1,0.1,4.6,112
2011-01-16 06:55:04,17.4,1.8,15.7,0.2,4.5,111
2011-01-16 07:00:04,17.4,1.9,15.4,0.3,4.5,111
2011-01-16 07:05:04,17.4,1.7,15.6,0.6,4.4,111
2011-01-16 07:10:04,17.4,0.7,16.6,1.1,4.4,112
2011-01-16 07:15:04,17.7,-2.3,19.9,2.2,4.5,111
2011-01-16 07:20:04,20.3,-5.3,25.6,4.5,4.5,111
2011-01-16 07:25:04,21.4,-9.1,30.4,8.1,4.5,112
2011-01-16 07:30:04,21.6,-11.4,33.0,12.8,4.5,111
2011-01-16 07:35:04,21.7,-12.2,33.9,18.0,4.5,112
2011-01-16 07:40:04,21.7,-12.9,34.6,22.7,4.5,111
2011-01-16 07:45:04,21.7,-12.8,34.5,26.2,4.5,112
2011-01-16 07:50:04,21.8,-13.2,34.9,28.4,4.5,111
2011-01-16 07:55:04,21.8,-13.4,35.2,29.8,4.4,112
2011-01-16 08:00:04,21.8,-13.6,35.4,30.6,4.3,111
2011-01-16 08:05:04,21.8,-13.7,35.6,31.1,4.4,111
2011-01-16 08:10:04,21.8,-13.3,35.1,31.4,4.4,112
2011-01-16 08:15:04,21.8,-13.2,35.0,31.6,4.4,111
2011-01-16 08:20:04,21.8,-13.4,35.2,31.8,4.3,112
2011-01-16 08:25:04,21.7,-13.6,35.3,31.9,4.4,111
2011-01-16 08:30:04,21.7,-13.6,35.3,32.0,4.4,112
2011-01-16 08:35:04,21.8,-13.8,35.6,32.0,4.4,112
2011-01-16 08:40:04,21.8,-13.4,35.3,32.1,4.4,111
2011-01-16 08:45:04,21.9,-13.3,35.2,32.2,4.4,111
2011-01-16 08:50:04,21.9,-13.3,35.2,32.2,4.3,112
2011-01-16 08:55:04,21.9,-13.3,35.2,32.2,4.4,112
2011-01-16 09:00:04,21.9,-13.2,35.1,32.2,4.4,111
2011-01-16 09:05:04,21.9,-13.3,35.2,32.3,4.4,112
2011-01-16 09:10:04,22.0,-12.7,34.7,32.3,4.4,112
2011-01-16 09:15:04,22.1,-9.2,31.3,32.3,4.3,111
2011-01-16 09:20:04,22.3,-4.3,26.6,32.4,4.2,112
2011-01-16 09:25:04,21.9,2.2,19.7,32.4,4.2,111
2011-01-16 09:30:04,19.6,2.8,16.7,32.4,4.4,112
2011-01-16 09:35:04,20.1,-4.6,24.7,32.4,4.3,112
2011-01-16 09:40:04,21.5,3.2,18.3,32.4,4.3,111
2011-01-16 09:45:04,19.0,4.1,14.9,32.4,4.4,112
2011-01-16 09:50:04,18.6,5.6,13.0,32.3,4.4,111
2011-01-16 09:55:04,18.3,4.0,14.3,32.4,4.3,112
2011-01-16 10:00:04,18.5,3.7,14.8,32.4,4.3,112
2011-01-16 10:05:04,18.1,5.7,12.4,32.3,4.2,111
2011-01-16 10:10:04,17.6,5.6,12.0,32.1,4.2,111
2011-01-16 10:15:04,17.8,5.5,12.3,32.0,4.3,112
2011-01-16 10:20:04,17.6,5.1,12.5,31.9,4.6,112
2011-01-16 10:25:04,17.3,4.9,12.4,31.9,11.5,111
2011-01-16 10:30:04,17.0,5.7,11.3,31.9,4.2,111
2011-01-16 10:35:04,16.9,5.6,11.3,32.0,3.9,112
2011-01-16 10:40:04,17.0,5.9,11.1,32.2,3.9,111
2011-01-16 10:45:04,17.0,5.8,11.2,32.1,3.9,112
2011-01-16 10:50:04,17.1,5.9,11.2,32.3,3.8,112
2011-01-16 10:55:04,17.2,6.0,11.2,32.3,3.8,111
2011-01-16 11:00:04,17.3,6.2,11.1,32.3,3.8,112
2011-01-16 11:05:04,17.4,6.1,11.4,32.4,3.8,111
2011-01-16 11:10:04,17.5,5.3,12.2,32.4,3.7,112
2011-01-16 11:15:04,17.6,5.9,11.7,32.3,3.8,111
2011-01-16 11:20:04,17.6,5.9,11.7,32.3,3.7,112
2011-01-16 11:25:04,17.6,5.8,11.8,32.3,3.7,112
2011-01-16 11:30:04,17.6,6.3,11.3,32.3,3.7,111
2011-01-16 11:35:04,17.6,5.7,12.0,32.3,3.7,112
2011-01-16 11:40:04,17.6,6.0,11.6,32.3,3.7,111
2011-01-16 11:45:04,17.6,6.1,11.5,32.4,3.7,112
2011-01-16 11:50:04,17.8,4.6,13.1,32.5,3.7,112
2011-01-16 11:55:04,17.9,5.5,12.4,32.4,3.8,111
2011-01-16 12:00:04,17.9,6.2,11.7,32.4,3.7,111
2011-01-16 12:05:04,17.9,6.4,11.5,32.3,3.7,112
2011-01-16 12:10:04,17.8,6.1,11.7,32.3,3.7,111
2011-01-16 12:15:04,17.8,6.0,11.8,32.3,3.7,111
2011-01-16 12:20:04,17.7,6.2,11.5,32.3,3.7,112
2011-01-16 12:25:05,17.7,5.8,11.8,32.3,3.7,111
2011-01-16 12:30:05,17.6,5.8,11.8,32.3,3.7,112
2011-01-16 12:35:05,17.6,5.5,12.1,32.2,3.7,111
2011-01-16 12:40:05,17.5,5.6,11.9,32.2,3.7,111
2011-01-16 12:45:05,17.4,5.6,11.8,32.3,3.7,112
2011-01-16 12:50:05,17.5,5.8,11.7,32.3,3.7,112
2011-01-16 12:55:05,17.5,5.9,11.6,32.4,3.7,111
2011-01-16 13:00:05,17.5,5.5,12.1,32.3,3.7,112
2011-01-16 13:05:05,17.5,5.7,11.8,32.3,3.7,111
2011-01-16 13:10:05,17.5,5.8,11.8,32.3,3.7,112
2011-01-16 13:15:05,17.6,5.6,11.9,32.2,3.8,111
2011-01-16 13:20:05,17.6,6.2,11.4,32.3,3.7,112
2011-01-16 13:25:05,17.6,6.1,11.5,32.3,3.8,111
2011-01-16 13:30:05,17.6,6.2,11.4,32.2,3.7,112
2011-01-16 13:35:05,17.6,5.9,11.7,32.2,3.8,111
2011-01-16 13:40:05,17.6,6.6,11.0,32.1,3.7,111
2011-01-16 13:45:05,17.5,6.0,11.5,31.9,3.9,112
2011-01-16 13:50:05,17.5,6.5,11.0,31.9,3.8,111
2011-01-16 13:55:05,17.4,6.4,11.0,31.8,3.8,112
2011-01-16 14:00:05,17.4,6.0,11.4,32.0,4.6,111
2011-01-16 14:05:05,17.1,6.4,10.8,32.0,3.9,111
2011-01-16 14:10:05,17.1,6.2,10.8,32.1,3.7,112
2011-01-16 14:15:05,17.1,6.4,10.7,32.0,3.7,111
2011-01-16 14:20:05,17.1,6.4,10.7,32.1,3.7,112
2011-01-16 14:25:05,17.2,6.4,10.8,32.0,3.7,111
2011-01-16 14:30:05,17.2,6.4,10.8,32.1,3.7,111
2011-01-16 14:35:05,17.3,6.5,10.8,32.0,3.7,111
2011-01-16 14:40:05,17.3,6.1,11.1,31.9,3.7,112
2011-01-16 14:45:05,17.3,6.4,10.9,31.9,3.7,111
2011-01-16 14:50:05,17.2,6.2,11.0,31.9,3.7,111
2011-01-16 14:55:05,17.2,6.3,10.9,31.9,3.7,112
2011-01-16 15:00:05,17.2,6.1,11.2,31.9,3.7,111
2011-01-16 15:05:05,17.2,6.3,10.8,32.0,3.7,111
2011-01-16 15:10:05,17.2,6.2,11.0,31.9,3.7,112
2011-01-16 15:15:05,17.1,6.1,11.0,31.7,3.6,111
2011-01-16 15:20:05,17.1,6.2,10.9,31.7,3.6,111
2011-01-16 15:25:05,17.1,6.1,10.9,31.6,3.6,112
2011-01-16 15:30:05,17.1,6.2,10.8,31.5,3.5,111
2011-01-16 15:35:05,17.1,6.1,10.9,31.4,3.6,111
2011-01-16 15:40:05,17.0,6.1,11.0,30.7,3.6,112
2011-01-16 15:45:05,17.0,6.3,10.7,30.7,3.6,111
2011-01-16 15:50:05,17.0,6.2,10.8,30.7,3.6,111
2011-01-16 15:55:05,17.0,6.1,10.9,30.3,3.8,112
2011-01-16 16:00:05,17.0,6.2,10.8,29.7,3.7,111
2011-01-16 16:05:05,17.0,6.1,10.9,29.0,3.7,112
2011-01-16 16:10:05,16.9,6.4,10.6,27.2,3.4,111
2011-01-16 16:15:05,16.9,5.7,11.2,24.8,4.0,112
2011-01-16 16:20:05,16.9,5.3,11.6,24.3,7.4,111
2011-01-16 16:25:05,16.8,6.8,10.0,23.1,19.1,111
2011-01-16 16:30:05,16.8,11.0,5.8,21.5,21.6,112
2011-01-16 16:35:05,16.8,10.3,6.4,17.6,12.4,111
2011-01-16 16:40:05,16.5,10.3,6.3,14.5,5.4,111
2011-01-16 16:45:05,16.4,6.6,9.9,11.5,3.6,112
2011-01-16 16:50:05,16.5,6.3,10.2,8.4,3.2,111
2011-01-16 16:55:05,16.6,6.4,10.2,6.3,3.1,112
2011-01-16 17:00:05,16.7,6.4,10.3,3.5,3.1,111
2011-01-16 17:05:05,16.8,6.5,10.3,2.0,3.1,111
2011-01-16 17:10:05,16.8,6.8,10.0,0.9,3.2,111
2011-01-16 17:15:05,16.9,6.6,10.3,0.4,3.2,112
2011-01-16 17:20:05,16.9,6.7,10.2,0.3,3.4,111
2011-01-16 17:25:05,16.9,6.5,10.4,0.1,3.9,111
2011-01-16 17:30:05,16.9,5.5,11.3,0.1,6.9,112
2011-01-16 17:35:05,16.8,5.9,10.9,0.0,6.3,111
2011-01-16 17:40:05,16.7,6.2,10.5,0.0,3.9,112
2011-01-16 17:45:05,16.8,6.5,10.3,0.1,3.8,111
2011-01-16 17:50:05,16.8,6.4,10.5,0.1,3.7,111
2011-01-16 17:55:05,16.9,6.7,10.2,0.1,3.7,111
2011-01-16 18:00:05,16.9,6.0,11.0,0.1,3.8,112
2011-01-16 18:05:05,17.0,6.3,10.7,0.1,3.7,111
2011-01-16 18:10:05,17.0,6.4,10.6,0.1,3.6,112
2011-01-16 18:15:05,17.0,6.2,10.9,0.1,5.4,112
2011-01-16 18:20:05,17.0,5.5,11.5,0.1,8.0,111
2011-01-16 18:25:05,16.9,6.1,10.9,0.1,6.2,111
2011-01-16 18:30:05,16.9,6.6,10.3,0.1,4.5,111
2011-01-16 18:35:05,17.0,6.4,10.6,0.0,8.8,112
2011-01-16 18:40:05,17.0,10.1,6.9,0.0,27.8,112
2011-01-16 18:45:05,16.7,9.1,7.6,0.0,15.6,111
2011-01-16 18:50:05,17.0,7.2,9.8,0.0,2.6,112
2011-01-16 18:55:05,17.0,6.2,10.8,0.0,2.4,111
2011-01-16 19:00:05,17.0,6.2,10.8,0.0,2.9,111
2011-01-16 19:05:05,17.0,7.9,9.1,0.0,20.0,111
2011-01-16 19:10:05,16.9,10.2,6.7,0.0,34.9,112
2011-01-16 19:15:05,16.8,10.0,6.7,0.0,35.0,111
2011-01-16 19:20:05,16.7,10.0,6.7,0.0,31.6,112
2011-01-16 19:25:05,16.8,9.8,6.9,0.0,21.2,111
2011-01-16 19:30:05,17.0,9.4,7.6,0.0,12.2,112
2011-01-16 19:35:05,17.0,9.4,7.6,0.0,10.4,111
2011-01-16 19:40:05,16.9,9.1,7.9,0.0,32.0,112
2011-01-16 19:45:05,16.8,8.9,7.9,0.0,34.6,111
2011-01-16 19:50:05,16.8,9.1,7.7,0.1,20.4,111
2011-01-16 19:55:05,17.0,8.7,8.2,0.0,19.4,112
2011-01-16 20:00:05,17.0,8.5,8.5,0.0,4.9,111
2011-01-16 20:05:05,17.0,8.7,8.3,0.0,6.4,112
2011-01-16 20:10:05,17.0,8.5,8.5,0.0,13.2,111
2011-01-16 20:15:05,17.0,8.2,8.8,0.0,4.1,112
2011-01-16 20:20:05,16.9,8.4,8.5,0.0,5.0,111
2011-01-16 20:25:05,16.9,7.6,9.3,0.0,4.7,111
2011-01-16 20:30:05,16.9,5.5,11.4,0.0,3.6,112
2011-01-16 20:35:05,16.9,5.2,11.8,0.0,3.1,112
2011-01-16 20:40:05,16.9,6.2,10.8,0.0,2.3,111
2011-01-16 20:45:05,17.0,5.8,11.1,0.0,2.6,112
2011-01-16 20:50:05,17.0,5.9,11.1,0.0,2.3,111
2011-01-16 20:55:05,17.0,6.1,10.9,0.0,2.3,111
2011-01-16 21:00:05,17.0,5.9,11.1,0.0,2.3,112
2011-01-16 21:05:05,17.0,5.6,11.4,0.0,2.4,112
2011-01-16 21:10:05,17.0,5.9,11.1,0.0,2.3,111
2011-01-16 21:15:05,17.0,6.0,11.0,0.0,2.3,112
2011-01-16 21:20:05,16.9,6.1,10.8,0.1,2.3,111
2011-01-16 21:25:05,16.9,5.6,11.4,0.1,2.3,112
2011-01-16 21:30:05,16.9,5.8,11.1,0.1,2.3,111
2011-01-16 21:35:05,16.9,5.7,11.2,0.1,2.3,112
2011-01-16 21:40:05,16.9,5.4,11.5,0.0,2.3,112
2011-01-16 21:45:05,16.8,5.6,11.2,0.1,2.7,111
2011-01-16 21:50:05,16.8,5.1,11.6,0.0,2.7,112
2011-01-16 21:55:05,16.7,4.9,11.7,0.0,3.1,112
2011-01-16 22:00:05,16.6,5.6,11.0,0.1,3.1,111
2011-01-16 22:05:05,16.5,5.6,11.0,0.1,2.6,112
2011-01-16 22:10:05,16.5,5.7,10.9,0.1,2.5,111
2011-01-16 22:15:05,16.5,5.6,10.9,0.1,2.4,112
2011-01-16 22:20:05,16.5,4.2,12.3,0.3,5.4,111
2011-01-16 22:25:05,16.4,4.5,11.9,0.3,2.6,112
2011-01-16 22:30:05,16.4,4.4,12.0,0.3,2.3,112
2011-01-16 22:35:05,16.4,3.9,12.5,0.4,2.3,111
2011-01-16 22:40:05,16.4,2.3,14.1,0.5,2.3,112
2011-01-16 22:45:05,16.4,0.4,16.0,0.6,2.3,111
2011-01-16 22:50:05,16.5,3.9,12.6,0.5,2.3,111
2011-01-16 22:55:05,16.5,5.1,11.4,0.3,2.3,112
2011-01-16 23:00:05,16.6,5.3,11.3,0.3,2.3,112
2011-01-16 23:05:05,16.6,2.2,14.4,0.6,2.3,111
2011-01-16 23:10:05,16.3,0.7,15.6,0.6,2.3,112
2011-01-16 23:15:05,16.6,-0.3,16.9,0.6,2.3,110
2011-01-16 23:20:05,18.5,-1.8,20.3,0.6,2.4,112
2011-01-16 23:25:05,17.3,-0.1,17.3,0.5,2.5,112
2011-01-16 23:30:05,16.8,2.3,14.5,0.5,2.3,111
2011-01-16 23:35:05,16.6,3.0,13.6,0.4,2.3,111
2011-01-16 23:40:05,16.5,3.5,13.1,0.4,2.3,111
2011-01-16 23:45:05,16.6,-0.9,17.5,0.6,2.3,112
2011-01-16 23:50:05,19.1,-9.8,28.9,0.7,2.4,111
2011-01-16 23:55:05,20.5,-9.2,29.7,0.8,2.3,112
